[[{"header":{"parameterUnit":"m.s-1","parameterCategory":2,"la1":30.2992,"la2":30.254,"lo1":-89.0895,"lo2":-89.0443,"dy":0.0025,"dx":0.0025,"nx":19,"ny":19,"refTime":"2026-05-04T09:00:00:Z","depth":"0","parameterNumber":2,"parameterNumberName":"U-component_of_CURRENTS"},"data":[0,0,0,0.3468,0.3471,0.3579,0.3579,0.3613,0.3613,0,0,0,0,0,0,0,0,0,0,0,0.3408,0.341,0.3468,0.3472,0.3579,0.3579,0.3613,0.3613,0,0,0,0,0,0,0,0,0,0,0,0.3408,0.3409,0.3411,0.3472,0.3579,0.3579,0.3613,0.3549,0,0,0,0,0,0,0,0,0,0,0.3454,0.3405,0.3409,0.3411,0.3473,0.3579,0.3579,0.3547,0.3553,0.3546,0,0.3577,0,0.3621,0.3617,0.3617,0,0,0,0.3437,0.34,0.3462,0.3411,0.3475,0.3579,0.3521,0.3551,0.3558,0.3554,0.3578,0.3581,0.3621,0.3617,0.3617,0.3702,0.3702,0,0,0.3431,0.3391,0.3458,0.3467,0.3521,0.3518,0.3525,0.3556,0.3549,0.3578,0.3583,0.3622,0.3617,0.3618,0.3701,0.3702,0,0,0,0.3437,0.3387,0.3448,0.3464,0.3506,0.3522,0.3529,0.3546,0.3577,0.3583,0.3622,0.3617,0.3618,0.3701,0.3702,0.3771,0,0,0,0.3432,0.3395,0.3446,0.3418,0.3507,0.3539,0.3519,0.3574,0.358,0.3622,0.3617,0.3618,0.37,0.3701,0.3768,0.3824,0,0,0,0.34,0.3391,0.3416,0.3417,0.3486,0.354,0.357,0.3576,0.3605,0.3617,0.3619,0.37,0.3701,0.3765,0.3818,0.399,0,0,0,0.3337,0.3387,0.3415,0.3468,0.3486,0.3563,0.357,0.3602,0.3612,0.3618,0.37,0.3701,0.3764,0.3814,0.3984,0.3989,0.4016,0,0,0.3371,0.3388,0.3422,0.3453,0.3509,0.3544,0.3602,0.3615,0.3632,0.3675,0.3677,0.3769,0.3818,0.3989,0.4068,0.4093,0,0,0,0.3414,0.3423,0.3447,0.3485,0.355,0.3597,0.3621,0.3673,0.374,0.3656,0.3777,0.3807,0.3913,0.3903,0.3923,0.3786,0.3708,0.3708,0.3708,0.3388,0.3423,0.3445,0.3486,0.3535,0.3626,0.3704,0.3777,0.3763,0.3823,0.3868,0.4053,0.4038,0.4054,0.3911,0.386,0.3861,0.3861,0.3861,0.3403,0.3432,0.3429,0.3462,0.3526,0.3587,0.3771,0.3827,0.4037,0.3958,0.4059,0.398,0.4081,0.392,0.3866,0.3865,0.3864,0.3864,0.3863,0.339,0.3415,0.3399,0.345,0.3514,0.3621,0.3841,0.3991,0.4108,0.4222,0.4283,0.4281,0.4144,0.4298,0.43,0.4301,0.4301,0.4302,0.4303,0.3425,0.341,0.3453,0.3485,0.353,0.3682,0.3949,0.4126,0.4348,0.4396,0.4397,0.4187,0.4188,0.4177,0.4318,0.4315,0.4313,0.4312,0.4311,0.3512,0.3516,0.3576,0.3609,0.3701,0.3782,0.4025,0.4316,0.4546,0.4644,0.443,0.4511,0.4517,0.4498,0.4495,0.4712,0.4712,0.4712,0.4712,0.3602,0.3604,0.3694,0.3746,0.3816,0.3846,0.3996,0.4234,0.4464,0.4497,0.4517,0.4346,0.4336,0.432,0.4305,0.4293,0.4454,0.4453,0.4453,0.3709,0.3717,0.3788,0.3791,0.3824,0.3847,0.3826,0.3856,0.4198,0.4426,0.4334,0.4345,0.4069,0.4064,0.401,0.4,0.3969,0,0]},{"header":{"parameterUnit":"m.s-1","parameterCategory":2,"la1":30.2992,"la2":30.254,"lo1":-89.0895,"lo2":-89.0443,"dy":0.0025,"dx":0.0025,"nx":19,"ny":19,"refTime":"2026-05-04T09:00:00:Z","depth":"0","parameterNumber":3,"parameterNumberName":"V-component_of_CURRENTS"},"data":[0,0,0,0.0238,0.0239,0.0253,0.0253,0.0188,0.0187,0,0,0,0,0,0,0,0,0,0,0,0.0222,0.0222,0.0238,0.0239,0.0253,0.0253,0.0188,0.0187,0,0,0,0,0,0,0,0,0,0,0,0.0222,0.0222,0.0222,0.0239,0.0253,0.0253,0.0188,0.0195,0,0,0,0,0,0,0,0,0,0,0.019,0.0201,0.0222,0.0222,0.0239,0.0253,0.0253,0.0196,0.0195,0.0161,0,0.0165,0,0.0183,0.0182,0.0182,0,0,0,0.0227,0.0203,0.0201,0.0222,0.024,0.0254,0.0243,0.0196,0.0194,0.0158,0.0165,0.0163,0.0182,0.0181,0.0181,0.022,0.0221,0,0,0.0226,0.0227,0.0203,0.02,0.0244,0.0243,0.0244,0.0196,0.0195,0.0165,0.0163,0.0181,0.0181,0.018,0.0219,0.022,0,0,0,0.0232,0.0226,0.0227,0.0201,0.0216,0.0244,0.0245,0.0197,0.0196,0.0162,0.018,0.018,0.0179,0.0218,0.0219,0.0452,0,0,0,0.0231,0.0231,0.0227,0.0228,0.0217,0.0222,0.0247,0.0199,0.0195,0.018,0.018,0.0179,0.0216,0.0218,0.0443,0.0618,0,0,0,0.0221,0.023,0.0231,0.0228,0.0241,0.0223,0.022,0.0199,0.0206,0.0182,0.0179,0.0216,0.0218,0.0435,0.0601,0.0766,0,0,0,0.0221,0.0279,0.0231,0.0296,0.0241,0.0291,0.022,0.024,0.0228,0.018,0.0217,0.0219,0.0433,0.0591,0.0756,0.0837,0.0894,0,0,0.0308,0.0289,0.033,0.0289,0.0374,0.0288,0.039,0.0335,0.0252,0.0221,0.0223,0.0446,0.06,0.0764,0.0974,0.1028,0,0,0,0.0369,0.0397,0.0411,0.0443,0.0442,0.0508,0.0427,0.0422,0.0434,0.0259,0.0429,0.052,0.0616,0.0641,0.0683,0.039,0.023,0.023,0.023,0.0497,0.0499,0.059,0.0602,0.0635,0.0645,0.0714,0.069,0.0543,0.0596,0.0694,0.0967,0.0992,0.1026,0.0721,0.0636,0.0637,0.0637,0.0638,0.0658,0.0737,0.0742,0.0834,0.0876,0.0954,0.1013,0.0974,0.1089,0.0904,0.0982,0.0866,0.1087,0.0744,0.0653,0.065,0.0648,0.0647,0.0646,0.075,0.081,0.0845,0.101,0.117,0.1216,0.149,0.1467,0.1359,0.146,0.1435,0.143,0.1146,0.147,0.1472,0.1473,0.1474,0.1475,0.1476,0.087,0.0919,0.1068,0.1229,0.1376,0.1619,0.1802,0.1902,0.1894,0.176,0.1757,0.1214,0.1221,0.1208,0.15,0.1496,0.1493,0.149,0.1489,0.1057,0.1082,0.1292,0.1442,0.1791,0.21,0.2238,0.24,0.243,0.2423,0.1721,0.1895,0.1845,0.1807,0.1806,0.2236,0.2236,0.2236,0.2236,0.12,0.1225,0.1505,0.1756,0.2092,0.2325,0.2687,0.2751,0.2368,0.2079,0.186,0.1607,0.159,0.1504,0.1473,0.1455,0.1787,0.1786,0.1784,0.1374,0.1411,0.1625,0.1827,0.22,0.2547,0.285,0.2885,0.2226,0.1727,0.1447,0.1467,0.1039,0.1035,0.0841,0.082,0.0768,0,0]}],[{"header":{"parameterUnit":"m.s-1","parameterCategory":2,"la1":30.2992,"la2":30.254,"lo1":-89.0895,"lo2":-89.0443,"dy":0.0025,"dx":0.0025,"nx":19,"ny":19,"refTime":"2026-05-04T09:00:00:Z","depth":"2","parameterNumber":2,"parameterNumberName":"U-component_of_CURRENTS"},"data":[0,0,0,0.3371,0.3375,0.3486,0.3486,0.3452,0.3452,0,0,0,0,0,0,0,0,0,0,0,0.3303,0.3305,0.3371,0.3376,0.3486,0.3486,0.3452,0.3452,0,0,0,0,0,0,0,0,0,0,0,0.3303,0.3304,0.3306,0.3376,0.3486,0.3486,0.3452,0.3399,0,0,0,0,0,0,0,0,0,0,0.3308,0.327,0.3304,0.3306,0.3378,0.3487,0.3486,0.3398,0.3402,0.3369,0,0.3411,0,0.3466,0.3451,0.3451,0,0,0,0.3321,0.3267,0.3333,0.3306,0.3379,0.3487,0.3421,0.3401,0.3406,0.3374,0.3412,0.3413,0.3465,0.3451,0.345,0.3474,0.3474,0,0,0.3315,0.3278,0.3331,0.3337,0.3438,0.3418,0.3425,0.3406,0.3398,0.3412,0.3413,0.3465,0.345,0.345,0.3474,0.3474,0,0,0,0.3334,0.3273,0.3341,0.3336,0.3391,0.3423,0.3431,0.3397,0.3432,0.3413,0.3464,0.345,0.345,0.3473,0.3474,0.3543,0,0,0,0.3328,0.329,0.3339,0.3311,0.3393,0.3418,0.3422,0.3432,0.3434,0.3464,0.345,0.345,0.3473,0.3474,0.354,0.358,0,0,0,0.3293,0.3285,0.3316,0.331,0.3392,0.3421,0.3451,0.3433,0.3466,0.3451,0.345,0.3472,0.3473,0.3537,0.3576,0.3714,0,0,0,0.3223,0.3275,0.3315,0.335,0.3392,0.3448,0.3451,0.3465,0.3451,0.345,0.3473,0.3474,0.3537,0.3573,0.3709,0.3544,0.3553,0,0,0.3252,0.3276,0.329,0.3332,0.3346,0.3427,0.3457,0.3448,0.3455,0.3456,0.3458,0.3541,0.3575,0.3713,0.36,0.3606,0,0,0,0.3273,0.327,0.3282,0.3295,0.3359,0.3425,0.3452,0.3497,0.3537,0.3469,0.3541,0.3561,0.3646,0.3536,0.3541,0.3478,0.3478,0.3478,0.3478,0.3235,0.3239,0.325,0.3276,0.3304,0.3406,0.3485,0.3554,0.3542,0.3595,0.3617,0.3766,0.3645,0.3648,0.361,0.361,0.3611,0.3611,0.3611,0.3217,0.3238,0.3216,0.323,0.3305,0.3349,0.352,0.3582,0.3756,0.3696,0.3776,0.361,0.3658,0.3616,0.3615,0.3615,0.3614,0.3614,0.3613,0.3161,0.3204,0.3187,0.3211,0.3294,0.3398,0.3565,0.3691,0.3814,0.3908,0.3841,0.3837,0.3849,0.3973,0.3974,0.3974,0.3975,0.3976,0.3976,0.3178,0.3179,0.3221,0.3246,0.3316,0.3408,0.3668,0.3789,0.3906,0.392,0.3918,0.389,0.3878,0.3872,0.3988,0.3986,0.3985,0.3983,0.3983,0.3204,0.3211,0.3259,0.3315,0.344,0.3416,0.3681,0.3789,0.3989,0.3966,0.3941,0.3938,0.3919,0.3909,0.3904,0.4024,0.4024,0.4024,0.4024,0.3252,0.3251,0.3345,0.3423,0.3476,0.3445,0.3439,0.3444,0.3596,0.3601,0.3618,0.3435,0.3444,0.3389,0.3391,0.3371,0.3352,0.335,0.3349,0.3313,0.3328,0.3383,0.3411,0.3476,0.3351,0.3122,0.2915,0.3013,0.3317,0.3445,0.3989,0.376,0.3758,0.3702,0.3695,0.3674,0,0]},{"header":{"parameterUnit":"m.s-1","parameterCategory":2,"la1":30.2992,"la2":30.254,"lo1":-89.0895,"lo2":-89.0443,"dy":0.0025,"dx":0.0025,"nx":19,"ny":19,"refTime":"2026-05-04T09:00:00:Z","depth":"2","parameterNumber":3,"parameterNumberName":"V-component_of_CURRENTS"},"data":[0,0,0,0.0135,0.0136,0.0171,0.0171,0.0116,0.0116,0,0,0,0,0,0,0,0,0,0,0,0.0115,0.0115,0.0135,0.0136,0.0171,0.0171,0.0116,0.0116,0,0,0,0,0,0,0,0,0,0,0,0.0115,0.0115,0.0116,0.0136,0.0171,0.0171,0.0117,0.0113,0,0,0,0,0,0,0,0,0,0,0.0091,0.0102,0.0115,0.0116,0.0137,0.0171,0.0171,0.0113,0.0113,0.0075,0,0.0085,0,0.0104,0.0111,0.011,0,0,0,0.0127,0.0103,0.0103,0.0116,0.0137,0.0171,0.0152,0.0114,0.0113,0.0074,0.0084,0.0083,0.0103,0.011,0.011,0.0127,0.0128,0,0,0.0125,0.0127,0.0104,0.0102,0.0149,0.0151,0.0154,0.0114,0.0118,0.0084,0.0083,0.0102,0.011,0.0109,0.0127,0.0128,0,0,0,0.0126,0.0126,0.0128,0.0103,0.0121,0.0153,0.0155,0.012,0.0118,0.0082,0.0102,0.0109,0.0108,0.0126,0.0127,0.0306,0,0,0,0.0124,0.0127,0.0128,0.013,0.0122,0.0138,0.0161,0.0121,0.0118,0.0102,0.0109,0.0108,0.0125,0.0126,0.03,0.0418,0,0,0,0.0113,0.0126,0.0129,0.013,0.0149,0.014,0.0137,0.0121,0.0129,0.011,0.0107,0.0124,0.0126,0.0294,0.0405,0.0487,0,0,0,0.0114,0.0182,0.0129,0.021,0.0149,0.0209,0.0137,0.0166,0.0161,0.0109,0.0125,0.0127,0.0292,0.0398,0.048,0.0437,0.0467,0,0,0.0214,0.0194,0.0244,0.0199,0.0285,0.0203,0.0292,0.0243,0.0171,0.0127,0.0128,0.0302,0.0405,0.0486,0.0541,0.0568,0,0,0,0.0287,0.0313,0.0333,0.0362,0.0368,0.0396,0.0333,0.0312,0.0303,0.0177,0.0288,0.0348,0.0393,0.035,0.0373,0.0135,0.0135,0.0135,0.0135,0.0414,0.0416,0.0508,0.051,0.0531,0.0517,0.0548,0.05,0.0396,0.0422,0.0482,0.0656,0.0612,0.0628,0.0445,0.0446,0.0446,0.0447,0.0447,0.0556,0.0615,0.0618,0.0703,0.0707,0.0758,0.0755,0.0714,0.0755,0.0634,0.0667,0.0528,0.0663,0.0461,0.0459,0.0457,0.0455,0.0454,0.0453,0.061,0.0654,0.0699,0.0808,0.0942,0.0956,0.1085,0.1037,0.0949,0.1004,0.0898,0.0893,0.0783,0.0999,0.1,0.1001,0.1002,0.1003,0.1003,0.066,0.0719,0.082,0.0953,0.1074,0.1187,0.1323,0.1346,0.1265,0.112,0.1117,0.0842,0.0824,0.0813,0.1017,0.1015,0.1013,0.1012,0.1011,0.072,0.0745,0.0873,0.0993,0.128,0.1469,0.1599,0.1612,0.16,0.1504,0.1157,0.1148,0.1088,0.1066,0.1059,0.1315,0.1315,0.1315,0.1315,0.0741,0.0771,0.0917,0.11,0.1348,0.1574,0.1844,0.1768,0.1511,0.1275,0.1277,0.1128,0.1117,0.1047,0.1025,0.1012,0.1257,0.1257,0.1257,0.0759,0.0782,0.0855,0.1026,0.1363,0.166,0.1934,0.1871,0.1394,0.1253,0.1254,0.1314,0.1089,0.1074,0.0951,0.0923,0.0895,0,0]}],[{"header":{"parameterUnit":"m.s-1","parameterCategory":2,"la1":30.2992,"la2":30.254,"lo1":-89.0895,"lo2":-89.0443,"dy":0.0025,"dx":0.0025,"nx":19,"ny":19,"refTime":"2026-05-04T09:00:00:Z","depth":"4","parameterNumber":2,"parameterNumberName":"U-component_of_CURRENTS"},"data":[0,0,0,0.093,0.0933,0.1346,0.1349,0.1872,0.1874,0,0,0,0,0,0,0,0,0,0,0,0.0815,0.0814,0.0929,0.0933,0.1345,0.135,0.1871,0.1874,0,0,0,0,0,0,0,0,0,0,0,0.0815,0.0814,0.0814,0.0934,0.1344,0.135,0.1871,0.1602,0,0,0,0,0,0,0,0,0,0,0.1219,0.1132,0.0815,0.0814,0.0935,0.1343,0.135,0.1591,0.1618,0.163,0,0.1598,0,0.1657,0.1894,0.1895,0,0,0,0.1104,0.111,0.1098,0.0814,0.0936,0.1342,0.1208,0.1608,0.1639,0.1666,0.1606,0.1625,0.1665,0.1895,0.1897,0.2175,0.2176,0,0,0.1081,0.104,0.1076,0.1114,0.0916,0.1193,0.1218,0.1629,0.1676,0.1608,0.1637,0.1674,0.1897,0.19,0.2174,0.2175,0,0,0,0.0901,0.1024,0.1012,0.1093,0.1116,0.12,0.123,0.1664,0.1619,0.1643,0.168,0.1899,0.1903,0.2173,0.2175,0.2257,0,0,0,0.0895,0.0904,0.0998,0.1002,0.1104,0.141,0.1256,0.1596,0.1641,0.1677,0.1899,0.1905,0.2172,0.2174,0.2253,0.2282,0,0,0,0.0819,0.0902,0.0881,0.0994,0.1079,0.1403,0.1402,0.1611,0.1654,0.1895,0.1906,0.2172,0.2174,0.2249,0.2276,0.2311,0,0,0,0.0864,0.0931,0.088,0.1041,0.1071,0.1342,0.1401,0.1693,0.1906,0.1901,0.2172,0.2174,0.2248,0.2272,0.2307,0.1994,0,0,0,0.0992,0.0947,0.1059,0.102,0.1219,0.1305,0.1614,0.1883,0.1932,0.2063,0.2073,0.2254,0.2276,0.231,0.2123,0,0,0,0,0.1138,0.1153,0.1235,0.1326,0.147,0.1628,0.1845,0.1924,0.214,0.2024,0.2275,0.2286,0.2304,0.2112,0.2185,0.2185,0.2184,0.2184,0.2184,0.124,0.1308,0.1466,0.1534,0.1688,0.1882,0.2056,0.2172,0.222,0.2297,0.2369,0.2472,0.2275,0.2389,0.2389,0.2389,0.239,0.239,0.239,0.1369,0.1425,0.1537,0.1706,0.1807,0.2026,0.2226,0.2293,0.2474,0.2462,0.2476,0.2232,0.2399,0.2397,0.2396,0.2395,0.2394,0.2394,0.2393,0.138,0.139,0.1526,0.1695,0.1887,0.2083,0.2223,0.2404,0.2535,0.2606,0.2389,0.2526,0.25,0.2621,0.2622,0.2622,0.2622,0.2622,0.2623,0.1278,0.139,0.1447,0.1673,0.1761,0.1957,0.2243,0.2332,0.2506,0.245,0.2638,0.2549,0.2542,0.2513,0.2628,0.2627,0.2626,0.2626,0.2625,0.1129,0.1217,0.1248,0.1327,0.154,0.1687,0.2004,0.2178,0.2269,0.2254,0.2348,0.236,0.2295,0.2294,0.2253,0.2295,0.2291,0.2288,0,0.0965,0.1039,0.0982,0.1018,0.1159,0.1464,0.1589,0.1785,0.1977,0.1939,0.2178,0.2274,0.2285,0.2197,0.2191,0.2134,0,0,0,0.0761,0.0791,0.0678,0.0816,0.0949,0.1288,0.162,0.1635,0.2004,0.1976,0.2197,0.2221,0.2347,0.2642,0.2571,0.2562,0.2512,0,0]},{"header":{"parameterUnit":"m.s-1","parameterCategory":2,"la1":30.2992,"la2":30.254,"lo1":-89.0895,"lo2":-89.0443,"dy":0.0025,"dx":0.0025,"nx":19,"ny":19,"refTime":"2026-05-04T09:00:00:Z","depth":"4","parameterNumber":3,"parameterNumberName":"V-component_of_CURRENTS"},"data":[0,0,0,0.0435,0.0437,0.0416,0.0415,0.0251,0.025,0,0,0,0,0,0,0,0,0,0,0,0.0431,0.0432,0.0435,0.0437,0.0416,0.0415,0.0251,0.025,0,0,0,0,0,0,0,0,0,0,0,0.0431,0.0432,0.0433,0.0437,0.0416,0.0415,0.0251,0.0288,0,0,0,0,0,0,0,0,0,0,0.0319,0.035,0.0432,0.0433,0.0437,0.0417,0.0415,0.029,0.0285,0.0238,0,0.0272,0,0.0285,0.0241,0.024,0,0,0,0.0381,0.0355,0.0368,0.0433,0.0438,0.0417,0.0409,0.0288,0.0283,0.0231,0.027,0.0266,0.0282,0.024,0.0239,0.0139,0.0139,0,0,0.0382,0.0394,0.0373,0.0367,0.0479,0.0411,0.041,0.0286,0.0285,0.027,0.0262,0.0279,0.0239,0.0238,0.0139,0.0139,0,0,0,0.0423,0.0395,0.0413,0.0372,0.0395,0.0412,0.041,0.0289,0.0303,0.0261,0.0277,0.0238,0.0236,0.0139,0.0139,0.018,0,0,0,0.0421,0.0424,0.0414,0.0416,0.04,0.0362,0.0416,0.031,0.0298,0.0278,0.0238,0.0235,0.0139,0.0139,0.018,0.0214,0,0,0,0.0424,0.0423,0.044,0.0418,0.0438,0.0365,0.0368,0.0307,0.031,0.024,0.0235,0.0139,0.0139,0.0179,0.0212,0.0173,0,0,0,0.0407,0.0447,0.0441,0.0476,0.044,0.0431,0.0369,0.0332,0.028,0.0237,0.0139,0.0139,0.0178,0.0211,0.0173,0.0259,0,0,0,0.0444,0.0451,0.0468,0.0464,0.0474,0.0427,0.0391,0.03,0.0254,0.0161,0.0159,0.018,0.0212,0.0173,0.0245,0,0,0,0,0.047,0.0479,0.0483,0.0489,0.0481,0.0429,0.0362,0.031,0.0222,0.0237,0.0164,0.0183,0.0157,0.0205,0.0138,0.0138,0.0138,0.0138,0.0138,0.0479,0.0481,0.0487,0.048,0.0474,0.0414,0.0362,0.0275,0.0237,0.0203,0.0204,0.019,0.0243,0.018,0.018,0.018,0.018,0.018,0.018,0.0468,0.0442,0.0461,0.0471,0.0444,0.0418,0.0334,0.0296,0.0222,0.0204,0.0175,0.0232,0.0184,0.0183,0.0183,0.0182,0.0182,0.0182,0.0182,0.0405,0.0392,0.0425,0.0426,0.0431,0.0413,0.0404,0.0342,0.0262,0.0255,0.0264,0.0202,0.021,0.0229,0.0229,0.0229,0.0229,0.0229,0.0229,0.0302,0.0334,0.0358,0.0371,0.0414,0.0444,0.0437,0.0424,0.0346,0.0325,0.0265,0.0206,0.0204,0.0211,0.0228,0.0228,0.0228,0.0228,0.0228,0.0221,0.0247,0.0301,0.0349,0.0447,0.0472,0.0478,0.048,0.0441,0.0387,0.0331,0.0326,0.0311,0.0306,0.0316,0.0366,0.0367,0.0368,0,0.0173,0.0176,0.033,0.0446,0.0514,0.0533,0.0566,0.0559,0.0454,0.0456,0.039,0.0328,0.0325,0.0308,0.0306,0.0319,0,0,0,0.0161,0.0227,0.0371,0.051,0.0602,0.0618,0.0602,0.0601,0.0468,0.0479,0.0397,0.039,0.0337,0.0228,0.0191,0.0189,0.0198,0,0]}]]